Location: ??????
(38.0677°N, 22.9870°E)
Time: 16:10:39
(UTC+00:00)

CZ-2D R/B - Pass Details

Date: 23 May 2024
Orbit: 790 x 843 km, 98.8° (Epoch: 24 June)

Event Time Altitude Azimuth Distance (km) Brightness Sun altitude
Rises 01:53:24 0° 354° (N) 3,406 5.9 -13.6°
Reaches altitude 10° 01:56:40 10° 334° (NNW) 2,462 4.8 -13.1°
Maximum altitude 01:59:50 16° 298° (WNW) 2,063 4.0 -12.6°
Enters shadow 02:02:44 11° 265° (W) 2,389 4.1 -12.2°
